Vertical_Velocity
-1 -1 -0 0 0 0 0 1 -1 0 -1 -0 1 1 -1 -1 -1 -1 -0 -0 -1 -0 -2 -1 -2 -0 1 1 1 1 1 2 1 0 -0 1 -1 -2 0 -1 -1 -1 -1 -2 -0
-1 -0 -1 1 1 -0 0 0 -1 -0 -0 -1 -0 2 1 -1 -1 -0 -1 -1 -1 1 -1 1 -1 -0 -0 0 -0 -1 -1 3 2 -1 -2 -0 1 -0 -1 0 -2 -2 -0 -1 -2
-0 -1 -1 0 -0 -0 -1 -1 -0 -1 -0 0 -1 1 1 -1 -1 -2 -0 0 -1 -0 -0 -1 -1 -0 -0 1 -0 -0 1 3 1 1 -0 -3 0 -1 -2 1 -1 -0 -1 -1 -0
-0 -1 -1 0 -0 -0 -0 -1 -1 -1 -0 -1 -1 -1 0 -0 -0 -1 -1 -0 -0 -0 -1 -0 -1 -0 -0 -0 -3 -0 -0 0 1 1 -1 1 -1 -2 -1 -1 0 -2 -1 -1 0
-1 -0 -1 -1 0 -0 -0 -1 -0 -1 -1 -1 -1 -1 -0 -1 0 -0 -0 -0 -0 1 -1 -1 -2 -1 -1 0 -1 -1 0 0 -1 1 -0 1 0 -1 -2 -1 -2 -1 1 -1 -2
-0 0 -1 -1 -1 -1 0 -1 -1 -0 -0 -1 -0 -1 -1 0 -1 1 -0 -0 1 1 -0 -1 -2 -1 0 -0 1 0 -1 -1 -0 -1 0 1 -0 -0 1 0 -2 -3 -0 1 -1
0 -1 -0 -0 0 -1 0 -0 -1 -1 0 -1 -0 -0 -2 -1 -1 -1 1 1 0 1 2 2 2 -2 -1 -1 -1 0 -2 -1 -1 -1 -0 3 0 1 -1 -3 -2 -1 -3 0 -1
0 -0 -1 -0 -2 -1 1 1 -1 -1 -1 -1 -1 -1 -1 -2 -0 -0 -0 -0 -1 2 2 -0 0 1 -1 -1 -0 1 -1 1 0 -2 -1 1 0 -1 1 -1 -1 -1 -2 -2 -1
0 -0 0 -0 0 -1 -1 -1 -0 -0 -0 -1 -0 -0 -0 -2 -1 -1 -1 -2 -0 0 1 1 -1 0 0 -0 0 1 2 -1 -1 -2 -1 -2 -0 0 -1 0 -1 0 -2 -2 -1
-1 -1 -0 0 1 -1 -0 -1 -1 -0 -1 -1 -0 -1 -1 0 -2 -0 -1 -1 -0 0 2 1 -0 1 -2 0 1 1 1 0 -2 -1 -2 -0 -2 1 1 -1 1 1 -1 -3 -2
-0 1 0 -1 -0 -0 -1 -0 -0 -0 -2 -0 -1 -0 -1 -0 -3 -1 1 -1 -1 -0 1 1 -1 -0 -1 0 1 0 1 1 1 -2 -2 -0 -2 3 -0 1 -1 -0 1 -4 -3
0 0 -1 -1 1 0 -1 0 -0 0 -1 1 -0 -2 -2 -3 -2 -0 1 -1 -1 -1 -0 2 1 -1 -0 -0 0 -1 2 1 -1 -1 -1 -1 -0 1 1 0 1 1 1 1 -4
1 1 -0 -0 -0 0 0 1 -1 -0 -0 -0 1 -1 -3 -1 -2 -0 0 0 1 -1 0 0 -3 -1 -0 -1 1 -0 -1 1 -1 -0 0 -1 1 2 1 1 -0 0 -1 1 0
-0 -0 0 1 -1 0 0 -0 -1 1 -1 -1 -2 0 -2 1 -3 -0 -1 2 1 0 -2 0 -3 1 -0 0 -1 -0 -2 0 -0 3 3 -3 -2 -3 3 4 3 1 3 2 2
-2 0 -1 -1 -1 -1 -0 -1 -1 -1 -6 -2 -1 1 1 2 3 1 -2 -0 -1 -0 1 -1 -2 -1 1 -1 -2 2 -1 0 1 2 -0 7 -4 1 -6 2 25 -10 3 2 1
-0 0 -1 -0 -1 -1 -0 0 0 -0 -3 -2 -1 -2 -2 1 2 0 1 -1 -1 -1 2 -4 0 -1 -2 -1 -0 -2 2 1 1 3 -3 -0 0 -2 7 -0 1 3 -5 1 -1
-1 -1 1 1 -0 1 -1 -0 -1 -1 2 -1 -2 -2 1 2 1 -0 0 -1 -2 0 -1 -1 2 -1 -1 -0 1 -0 0 2 -0 -1 -6 4 1 -3 -1 -2 -3 2 -2 1 -2
-0 -0 -1 -0 -1 -2 -1 -1 -1 4 0 0 -3 -1 0 2 1 -3 -1 -1 0 0 0 1 -4 0 1 2 -2 -4 -2 1 1 -0 6 -6 -4 2 0 -1 -3 -1 -1 -1 1
-2 -1 -1 -1 -1 -1 -0 -1 2 0 2 -0 -1 -1 1 1 0 -2 1 -0 -1 2 3 1 -1 -0 -0 0 2 4 -4 7 1 1 -2 5 2 -0 -1 1 -2 -1 -0 -2 1
-1 -1 -1 -2 -2 -2 -1 0 -2 -0 0 2 -1 3 1 2 -0 -1 0 2 -0 0 2 -1 2 -4 -3 -1 -0 -1 -2 -2 1 -2 2 4 -2 -2 0 -4 3 -0 -1 -2 0
1 1 -1 -1 -1 -1 -1 -1 -2 -0 1 0 -0 0 0 -2 1 1 -1 -0 -1 -2 -0 0 2 -2 -4 -1 -1 -0 -1 -0 -0 3 3 2 1 1 -2 0 1 -4 1 1 0
-1 1 -0 0 1 -2 -3 0 2 1 -1 -1 -0 2 2 2 -0 1 -1 -4 -1 -0 -0 -1 1 1 3 -8 -1 2 -1 2 -2 0 -1 -2 10 0 0 -1 2 -2 -1 4 2
-2 -0 1 0 -2 -1 -3 -4 -0 1 -0 -1 1 1 4 -0 0 1 0 0 -2 -1 -3 -4 0 0 -0 -8 -9 -5 -3 0 1 3 -3 -2 3 -7 3 -1 2 2 3 3 4
-0 -1 -1 -2 -1 -1 -2 -3 -3 0 -0 -0 1 1 3 -0 -1 -2 -0 -3 -1 -2 -2 -2 1 -2 -2 17 5 -2 -3 -6 -3 1 0 -1 6 2 1 1 2 2 1 5 1
-1 -1 -1 -2 -1 -1 -1 1 -1 -2 0 0 0 2 4 1 -0 -0 1 -0 -1 -2 -2 -0 -1 -7 1 -3 -0 -3 1 -3 -4 -7 4 14 9 -2 2 5 3 2 1 2 3
-0 -1 -1 -1 -1 0 -0 -1 -1 -1 -0 -3 -2 1 4 0 -1 -3 1 1 -1 -6 0 1 2 -7 1 -2 -2 -4 2 -0 -1 -1 -9 1 -8 5 -6 4 -2 -3 1 -0 2
0 -0 -0 1 0 -0 -2 -2 -1 -1 -1 -3 -2 -2 -1 -1 -0 -1 0 -1 0 0 0 -1 1 -1 -1 -2 -3 -3 2 -4 2 -3 -1 -8 10 6 -6 -6 1 -3 1 -0 0
Height
5905 5907 5909 5911 5913 5914 5916 5918 5919 5921 5922 5923 5925 5926 5927 5928 5928 5929 5930 5930 5930 5931 5932 5932 5933 5934 5935 5936 5935 5935 5936 5934 5933 5931 5929 5927 5927 5925 5923 5922 5920 5918 5917 5917 5918
5905 5907 5909 5911 5913 5914 5916 5918 5919 5921 5922 5924 5925 5926 5927 5928 5928 5930 5930 5930 5929 5931 5933 5933 5934 5935 5935 5936 5937 5936 5937 5936 5934 5932 5931 5929 5928 5927 5925 5923 5922 5920 5918 5917 5918
5904 5907 5908 5910 5912 5914 5916 5917 5919 5921 5922 5924 5925 5926 5927 5928 5929 5930 5930 5930 5930 5930 5932 5933 5934 5935 5935 5936 5937 5937 5938 5937 5936 5934 5933 5931 5930 5928 5926 5925 5924 5922 5920 5920 5919
5903 5905 5908 5909 5911 5914 5915 5917 5919 5920 5922 5924 5925 5926 5927 5928 5930 5930 5930 5930 5931 5931 5933 5933 5934 5936 5935 5936 5938 5938 5937 5937 5936 5936 5935 5932 5930 5930 5928 5927 5925 5923 5922 5921 5920
5902 5904 5906 5909 5910 5913 5915 5916 5918 5920 5921 5923 5925 5926 5927 5928 5929 5929 5930 5931 5931 5932 5933 5933 5934 5935 5936 5937 5937 5936 5936 5935 5935 5936 5935 5934 5932 5931 5929 5927 5926 5925 5924 5923 5922
5900 5902 5905 5907 5909 5911 5913 5915 5917 5919 5920 5922 5923 5925 5926 5928 5928 5929 5929 5931 5931 5931 5933 5934 5934 5935 5935 5935 5937 5936 5934 5934 5934 5935 5935 5934 5933 5931 5930 5927 5926 5926 5926 5925 5925
5899 5901 5903 5906 5908 5910 5912 5914 5915 5917 5919 5920 5921 5923 5925 5926 5926 5928 5929 5930 5931 5931 5933 5935 5935 5934 5934 5934 5936 5935 5934 5934 5935 5936 5936 5936 5935 5932 5930 5928 5927 5926 5926 5926 5925
5897 5900 5902 5904 5906 5908 5910 5912 5914 5915 5917 5919 5920 5921 5923 5924 5925 5926 5928 5929 5929 5930 5932 5933 5933 5934 5934 5934 5935 5935 5935 5937 5936 5936 5937 5937 5936 5933 5932 5930 5928 5926 5926 5926 5925
5896 5899 5901 5903 5905 5907 5908 5910 5912 5914 5915 5917 5918 5919 5921 5922 5923 5924 5926 5927 5928 5929 5930 5932 5932 5932 5933 5934 5935 5935 5936 5934 5935 5935 5936 5937 5936 5934 5932 5931 5930 5929 5927 5926 5926
5895 5897 5899 5901 5903 5905 5907 5909 5911 5912 5914 5915 5916 5918 5919 5921 5921 5922 5924 5925 5925 5926 5928 5930 5930 5931 5930 5932 5934 5935 5933 5933 5933 5935 5935 5937 5936 5935 5933 5932 5932 5931 5929 5927 5926
5894 5896 5898 5900 5902 5904 5906 5908 5910 5911 5911 5913 5915 5915 5916 5917 5919 5920 5921 5922 5923 5924 5925 5927 5928 5928 5928 5928 5931 5931 5931 5930 5932 5932 5934 5936 5936 5936 5935 5934 5933 5932 5930 5928 5927
5892 5894 5896 5899 5901 5903 5904 5905 5907 5909 5909 5910 5912 5913 5913 5914 5916 5917 5918 5920 5921 5921 5922 5924 5924 5925 5925 5925 5927 5928 5928 5928 5929 5931 5933 5934 5935 5935 5935 5935 5934 5933 5931 5930 5927
5889 5891 5894 5897 5899 5900 5902 5903 5904 5906 5907 5908 5909 5910 5911 5912 5912 5914 5915 5917 5918 5918 5919 5919 5921 5921 5922 5922 5923 5926 5925 5925 5926 5928 5931 5933 5935 5935 5934 5934 5933 5932 5931 5930 5928
5885 5888 5891 5894 5897 5898 5899 5901 5902 5903 5904 5906 5906 5907 5908 5909 5909 5910 5911 5913 5914 5915 5915 5916 5917 5918 5918 5919 5920 5922 5921 5922 5923 5926 5929 5928 5932 5933 5933 5933 5933 5932 5931 5930 5928
5882 5885 5888 5891 5893 5895 5897 5897 5899 5900 5900 5902 5903 5903 5904 5906 5907 5907 5907 5909 5910 5910 5912 5912 5912 5913 5915 5915 5915 5919 5917 5919 5921 5922 5924 5927 5927 5930 5929 5931 5934 5927 5929 5928 5926
5877 5881 5884 5887 5889 5891 5892 5894 5895 5897 5896 5897 5897 5898 5900 5901 5901 5902 5903 5904 5905 5905 5906 5906 5908 5909 5909 5910 5911 5913 5915 5915 5918 5920 5920 5924 5924 5926 5928 5927 5925 5925 5924 5925 5924
5872 5876 5880 5882 5885 5887 5888 5890 5892 5892 5892 5893 5892 5894 5895 5895 5896 5897 5898 5898 5900 5901 5901 5901 5903 5903 5905 5906 5907 5909 5911 5911 5914 5915 5918 5920 5918 5920 5920 5920 5920 5922 5921 5921 5921
5867 5871 5874 5877 5880 5882 5883 5886 5886 5887 5887 5887 5887 5888 5889 5890 5891 5891 5892 5893 5893 5895 5896 5897 5897 5898 5900 5901 5903 5904 5906 5908 5912 5915 5919 5912 5913 5917 5915 5915 5917 5918 5917 5918 5918
5861 5865 5869 5872 5874 5877 5879 5879 5880 5881 5882 5882 5882 5882 5883 5885 5886 5886 5886 5887 5887 5889 5892 5891 5891 5891 5894 5895 5898 5900 5900 5904 5905 5909 5908 5912 5912 5911 5912 5912 5912 5914 5915 5915 5915
5854 5859 5863 5866 5869 5871 5873 5873 5874 5874 5876 5877 5877 5878 5877 5879 5881 5880 5880 5881 5881 5882 5884 5885 5886 5884 5886 5889 5891 5892 5895 5897 5899 5901 5904 5906 5905 5906 5907 5906 5910 5911 5912 5913 5913
5848 5853 5856 5859 5862 5865 5866 5867 5867 5868 5870 5872 5872 5872 5872 5873 5874 5875 5874 5875 5875 5876 5877 5879 5881 5881 5880 5883 5884 5886 5888 5891 5894 5897 5899 5902 5904 5902 5900 5903 5905 5907 5909 5911 5911
5842 5847 5850 5852 5857 5857 5858 5860 5861 5862 5863 5864 5865 5866 5866 5867 5867 5868 5868 5868 5870 5871 5872 5873 5875 5877 5879 5876 5878 5880 5882 5885 5887 5891 5890 5892 5899 5895 5896 5898 5900 5902 5905 5908 5909
5836 5841 5844 5846 5849 5850 5851 5852 5853 5855 5856 5857 5858 5859 5860 5860 5861 5861 5861 5862 5863 5864 5865 5866 5870 5873 5875 5875 5872 5873 5875 5878 5882 5885 5885 5887 5893 5889 5890 5893 5894 5897 5900 5903 5906
5832 5836 5838 5840 5842 5843 5844 5845 5846 5847 5848 5849 5851 5852 5852 5852 5853 5853 5854 5853 5855 5856 5858 5859 5863 5864 5869 5870 5866 5867 5868 5870 5873 5877 5880 5882 5886 5885 5884 5885 5888 5890 5893 5897 5900
5827 5830 5832 5834 5836 5837 5838 5839 5839 5840 5842 5842 5843 5845 5846 5846 5846 5846 5847 5847 5847 5848 5850 5853 5854 5855 5855 5856 5858 5860 5861 5863 5865 5869 5874 5878 5878 5877 5877 5878 5881 5883 5885 5888 5892
5823 5825 5827 5829 5830 5831 5832 5833 5833 5833 5835 5835 5836 5837 5839 5839 5839 5838 5839 5840 5840 5840 5843 5845 5845 5844 5845 5848 5848 5849 5852 5854 5857 5859 5860 5863 5865 5867 5867 5869 5871 5874 5877 5879 5882
5818 5820 5822 5823 5824 5825 5825 5826 5826 5827 5829 5829 5829 5829 5830 5831 5831 5831 5832 5833 5833 5834 5835 5835 5836 5837 5837 5838 5838 5838 5842 5846 5847 5849 5852 5853 5857 5857 5854 5856 5860 5863 5867 5870 5873